Location: Hickory_CSC
(35.7330°N, 81.3330°W)
Time: 21:32:11
(UTC-04:00)

Cosmos 1356 Rocket - Visible Passes

Search period start: 25 August 2016 00:00
Search period end: 04 September 2016 00:00
Orbit: 544 x 601 km, 81.2° (Epoch: 25 August)

Date Brightness Start Highest point End Pass type
(mag) Time Alt. Az. Time Alt. Az. Time Alt. Az.
25 Aug 6.2 03:32:14 10° NNE 03:33:18 15° NNE 03:33:18 15° NNE visible
26 Aug 6.3 03:34:43 10° NNE 03:35:22 14° NNE 03:35:22 14° NNE visible
27 Aug 6.4 03:37:18 10° N 03:37:32 11° N 03:37:32 11° N visible
